• Join FlightAware (Why Join?)
  • Login
  • US Flag 
12:50AM EST


 

Airport Tracker/Info


-or-


 

Live Flight TrackerFlight Track Log ✈ LIA553 ✈ 12-May-2013 ✈ TQPF / AXA - TAPA / ANU

Flight Track Log - Related Links

Times and Time Zones

All times are in EDT time to prevent confusion due to time zone crossing. See the LIA553 flight status page for this flight to view local times or setup timezone preferences in your user account.

Time Position Orientation Groundspeed Altitude Reporting Facility
EDT Latitude Longitude Course Direction KTS MPH feet Rate Location/Type
02:53PM 17.5768 -62.4428 126° Southeast  Level FlightAware Approximate
02:54PM 17.5436 -62.3944 126° Southeast  Level FlightAware Approximate
02:55PM 17.5105 -62.3459 126° Southeast  Level FlightAware Approximate
02:56PM 17.4773 -62.2975 126° Southeast  Level FlightAware Approximate
02:57PM 17.4441 -62.2491 126° Southeast  Level FlightAware Approximate
02:58PM 17.4081 -62.2030 131° Southeast  Level FlightAware Approximate
02:59PM 17.3707 -62.1582 131° Southeast  Level FlightAware Approximate
03:00PM 17.3355 -62.1115 125° Southeast  Level FlightAware Approximate
03:01PM 17.3029 -62.0627 125° Southeast  Level FlightAware Approximate
03:02PM 17.2704 -62.0138 125° Southeast  Level FlightAware Approximate
03:03PM 17.2368 -61.9658 128° Southeast  Level FlightAware Approximate
03:04PM 17.2017 -61.9189 128° Southeast  Level FlightAware Approximate
03:05PM 17.1666 -61.8721 128° Southeast  Level FlightAware Approximate
03:06PM 17.1328 -61.8243 125° Southeast  Level FlightAware Approximate
03:07PM 17.1367 -61.7927 90° East  Level Estimated
03:08PM 17.1367 -61.7927 90° East  Level Estimated
03:09PM 17.1367 -61.7927 90° East  Level Estimated
03:10PM 17.1367 -61.7927 90° East  Level Estimated
03:11PM 17.1367 -61.7927 90° East  Level Estimated
03:12PM 17.1367 -61.7927 90° East  Level Estimated
03:13PM 17.1367 -61.7927 90° East  Level Estimated
03:14PM 17.1367 -61.7927 90° East  Level Estimated
03:15PM 17.1367 -61.7927 90° East  Level Estimated
03:16PM 17.1367 -61.7927 90° East  Level Estimated
03:17PM 17.1367 -61.7927 90° East  Level Estimated
03:18PM 17.1367 -61.7927 90° East  Level Estimated
03:19PM 17.1367 -61.7927 90° East  Level Estimated
03:20PM 17.1367 -61.7927 90° East  Level Estimated
03:21PM 17.1367 -61.7927 90° East  Level Estimated